Preview of NWS' New Version of Forecast
This preview is not operational and should not be used for support decisions.
Latest weather observations around

Augusta Daniel Field (KDNL)

Using English Units (Switch to International System of Units)
Date/ Time (EDT) Wind (mph) Vis. (mi) Weather Sky Cond. Temp (°F) Rel. Humidity Wind Chill (°F) Heat Index (°F) Pressure Precip. (in)
Air Dwpt 6 hour Altimeter (inHg) Sea level (inHg) 1 hr 3 hr 6 hr
Max Min
Jun 19 14:11 6 10 Mostly Cloudy FEW028 SCT033 BKN050 87 70     57%   92 29.87        
Jun 19 13:53 SW 5 10 Mostly Cloudy BKN028 BKN035 84 71     65%   89 29.87 29.85     0
Jun 19 12:53 SW 7 10 Mostly Cloudy BKN042 BKN050 82 70     67%   86 29.9 29.88 0    
Jun 19 11:53 SW 6 10 Cloudy FEW018 BKN034 OVC041 80 71     74%   84 29.92 29.9      
Jun 19 11:35 SW 3 10 Cloudy FEW013 BKN031 OVC041 80 71     74%   84 29.92        
Jun 19 11:25 5 10 Cloudy SCT013 BKN018 OVC031 79 71     77%   82 29.93        
Jun 19 11:09 6 10 Cloudy BKN013 OVC022 78 71     79%   79 29.93        
Jun 19 10:53 5 10 Cloudy SCT013 BKN020 OVC029 78 71     79%   79 29.93 29.91 0 0  
Jun 19 10:49 3 10 Cloudy FEW010 BKN015 OVC022 79 72     79%   82 29.93   0    
Jun 19 09:53 SW 5 10 Cloudy OVC010 76 71     85%   77 29.94 29.92      
Jun 19 09:02 SW 5 10 Cloudy BKN010 BKN017 OVC055 76 71     85%   77 29.94        
Jun 19 08:53 S 6 10 Cloudy SCT010 BKN017 OVC100 76 71     85%   77 29.93 29.91      
Jun 19 07:53 Calm 10 Mostly Cloudy FEW006 BKN095 74 70     87%   75 29.93 29.91     0
Jun 19 06:53 SSW 6 10 Partly Cloudy FEW005 SCT035 73 70     90%   74 29.94 29.92      
Jun 19 06:50 SSW 3 10 Partly Cloudy FEW005 SCT035 73 70     89%   75 29.94        
Jun 19 05:53 S 3 10 Cloudy OVC005 74 70     87%   75 29.92 29.9      
Jun 19 05:38 S 5 10 Mostly Cloudy BKN004 74 71     91%   75 29.92        
Jun 19 04:53 S 3 10 Partly Cloudy SCT002 74 71     91%   75 29.91 29.89   0  
Jun 19 04:29 SSE 5 9 Partly Cloudy SCT002 74 71     91%   75 29.91        
Jun 19 03:53 S 5 10 Mostly Clear FEW110 74 71     91%   75 29.91 29.89 0    
Jun 19 02:53 Calm 10 Light Rain SCT004 BKN110 74 71     91%   75 29.92 29.9 0    
Jun 19 02:49 Calm 10 Light Rain FEW004 SCT120 73 72     94%   75 29.92   0    
Jun 19 01:53 Calm 10 Clear CLR 74 71     91%   75 29.94 29.92     0
Jun 19 00:53 SSW 3 10 Clear CLR 74 71     91%   75 29.94 29.92      
Jun 18 23:53 SE 6 10 Clear CLR 74 71     91%   75 29.94 29.93      
Jun 18 22:53 SE 3 10 Clear CLR 74 70     87%   75 29.95 29.93 0 0  
Jun 18 21:53 NW 8 9 Light Rain FEW014 BKN040 OVC110 74 70     87%   75 29.96 29.94 0    
Jun 18 21:44 NNW 8 10 Light Rain FEW011 BKN040 OVC120 75 71     88%   76 29.96   0    
Jun 18 21:24 NW 8 9 Light Rain BKN015 OVC022 76 71     85%   77 29.96   0    
Jun 18 21:12 WNW 8 10 Thunderstorms SCT016 BKN020 OVC035 76 71     85%   77 29.97   0    
Jun 18 20:57 SSW 10 3 Thunderstorms and Rain FEW026 BKN036 OVC046 79 73     82%   82 29.95   0    
Jun 18 20:53 SSW 10 1.25 Thunderstorms and Heavy Rain SCT025 SCT036 OVC046 79 73     82%   82 29.95 29.93 0    
Jun 18 20:50 S 8 1 Thunderstorms and Heavy Rain SCT027 BKN046 OVC070 79 73     84%   82 29.95   0    
Jun 18 20:46 SW 13 1.75 Heavy Rain FEW032 BKN046 OVC070 81 72     74%   85 29.95   0    
Jun 18 20:42 WNW 6 5 Light Rain BKN048 OVC070 82 72     72%   87 29.94   0    
Jun 18 19:53 S 5 10 Partly Cloudy SCT065 87 67     51%   90 29.92 29.89      
Jun 18 18:53 SSW 6 10 Clear CLR 89 66     47%   92 29.91 29.89      
Jun 18 17:53 S 8 10 Clear CLR 90 65     44%   92 29.91 29.89      
Jun 18 16:53 S 9 10 Clear CLR 91 66     44%   94 29.92 29.9      
Jun 18 15:53 SE 7 10 Mostly Clear FEW060 89 66     47%   92 29.93 29.91      
Jun 18 14:53 6 10 Partly Cloudy SCT047 SCT060 89 67     48%   92 29.96 29.94      
Jun 18 13:53 Calm 10 Mostly Cloudy FEW043 BKN050 87 67     51%   90 29.97 29.95      
Jun 18 12:53 3 10 Clear CLR 88 66     48%   90 30 29.98      
Jun 18 11:53 S 3 10 Mostly Cloudy BKN034 84 67     57%   87 30.03 30.01      
Jun 18 10:53 SW 3 10 Partly Cloudy FEW024 SCT031 84 67     57%   87 30.03 30.01      
Jun 18 09:53 S 7 10 Partly Cloudy FEW017 SCT024 80 69     69%   83 30.04 30.02      
Jun 18 09:43 SW 7 10 Mostly Cloudy SCT017 BKN024 BKN030 80 70     71%   83 30.05        
Jun 18 09:18 S 6 10 Partly Cloudy SCT015 79 70     74%   82 30.05        
Jun 18 09:01 S 8 10 Mostly Cloudy BKN015 80 71     74%   84 30.05        
Jun 18 08:53 SSW 8 10 Partly Cloudy SCT013 79 70     74%   82 30.05 30.03      
Jun 18 07:53 SSE 5 10 Clear CLR 76 70     82%   77 30.05 30.03      
Jun 18 06:53 SE 5 7 Clear CLR 73 69     87%   74 30.05 30.03      
Jun 18 05:53 SE 5 10 Clear CLR 73 69     87%   74 30.04 30.02      
Jun 18 04:53 SSE 5 10 Clear CLR 74 69     85%   75 30.04 30.02      
Jun 18 03:53 SE 3 9 Clear CLR 75 69     82%   76 30.04 30.02      
Jun 18 02:53 SE 5 10 Clear CLR 76 69     79%   77 30.05 30.03      
Jun 18 01:53 SSE 3 10 Clear CLR 78 69     74%   79 30.07 30.04      
Jun 18 00:53 SSE 7 10 Clear CLR 80 69     69%   83 30.07 30.04      
Jun 17 23:53 S 7 10 Clear CLR 81 69     67%   84 30.07 30.04      
Jun 17 22:53 S 9 10 Clear CLR 83 68     61%   86 30.05 30.03      
Jun 17 21:53 SSE 10 10 Clear CLR 85 68     57%   88 30.04 30.02      
Jun 17 20:53 S 8 10 Clear CLR 87 67     51%   90 30.02 30.01      
Jun 17 19:53 S 8 10 Clear CLR 90 66     45%   93 30.01 29.98      
Jun 17 18:53 S 11 10 Clear CLR 92 67     44%   95 30.01 29.98      
Jun 17 17:53 SSE 10 10 Clear CLR 93 66     41%   96 30 29.98      
Jun 17 16:53 S 11 10 Mostly Clear FEW050 94 66     40%   97 30.01 29.99      
Jun 17 15:53 S 13 10 Mostly Clear FEW055 93 66     41%   96 30.03 30.01      
Jun 17 14:53 S 11 10 Partly Cloudy SCT050 93 67     43%   97 30.05 30.03      
Jun 17 13:53 SSE 9 10 Partly Cloudy SCT046 91 68     47%   95 30.06 30.04      
Jun 17 12:53 SSW 7 10 Mostly Clear FEW040 FEW060 89 69     52%   94 30.09 30.06      
Jun 17 11:53 6 10 Partly Cloudy SCT037 89 68     50%   93 30.1 30.08      
Jun 17 10:53 5 10 Clear CLR 87 70     57%   92 30.09 30.07      
Jun 17 09:53 SSW 7 10 Clear CLR 84 70     63%   88 30.08 30.06      
Jun 17 08:53 SSW 7 10 Clear CLR 80 70     71%   83 30.08 30.06      
Jun 17 07:53 S 5 10 Clear CLR 76 70     82%   77 30.07 30.05      
Jun 17 06:53 SSW 5 10 Clear CLR 75 70     84%   76 30.05 30.03      
Jun 17 05:53 S 7 10 Clear CLR 75 70     84%   76 30.03 30.01      
Jun 17 04:53 S 6 10 Clear CLR 75 69     82%   76 30.02 30      
Jun 17 03:53 SSE 5 10 Clear CLR 76 69     79%   77 30.03 30.01      
Jun 17 02:53 SSE 5 10 Clear CLR 76 69     79%   77 30.05 30.03      
Jun 17 01:53 S 5 10 Clear   78 69     74%   79 30.06 30.03      
Jun 17 00:53 SSE 3 10 Clear CLR 79 69     72%   80 30.06 30.03      
Jun 16 23:53 SSE 3 10 Clear CLR 80 69     69%   83 30.05 30.03      
Jun 16 22:53 S 7 10 Clear CLR 82 69     65%   85 30.04 30.02      
Jun 16 21:53 S 6 10 Clear CLR 84 66     55%   86 30.02 30      
Jun 16 20:53 SSE 5 10 Clear CLR 86 66     51%   88 30.01 29.99      
Jun 16 19:53 SE 6 10 Mostly Clear FEW100 89 66     47%   92 30 29.98      
Jun 16 18:53 S 6 10 Mostly Clear FEW065 90 64     42%   91 30 29.98      
Jun 16 17:53 S 8 10 Mostly Clear FEW065 92 64     40%   94 30 29.98      
Jun 16 16:53 WSW 5 10 Partly Cloudy SCT060 90 62     40%   90 30.01 29.99      
Jun 16 15:53 6 10 Mostly Cloudy BKN055 BKN070 91 65     42%   93 30.01 30      
Jun 16 14:53 6 10 Clear CLR 91 62     38%   92 30.04 30.02      
Jun 16 13:53 SSW 3 10 Partly Cloudy FEW049 SCT060 SCT090 89 65     45%   91 30.06 30.04      
May 15 14:53 E 8 2 Rain and Fog/Mist FEW009 BKN019 OVC031 74 72     94%   75 30 29.98 0    
May 15 12:26 SSE 6 1 Heavy Rain and Fog/Mist FEW011 BKN030 OVC049 72 69     91%   73 30.05   0    
May 15 10:42 SSE 5 10 Mostly Cloudy SCT005 BKN009 BKN049 74 71     91%   75 30.05   0    
May 14 15:53 SSE 9 10 Partly Cloudy SCT080 89 61     39%   89 30.01 30      
Notice The following observation data may not be complete
May 14 07:53   10 Clear CLR          %              
May 14 01:53 S 7 10 Clear CLR 77 60     56%   77 30.07 30.05      
May 13 15:53 W 5 10 Mostly Clear FEW080 95 58     29%   94 30.03 30.01      
May 12 14:53 N 6 10 Partly Cloudy SCT080 95 58     29%   94 30.09 30.07      
May 12 08:53 NW 5 10 Clear CLR 80 61     52%   81 30.16 30.14      
Notice The following observation data may not be complete
May 11 21:53 NW 5 10 Clear CLR   58      %     30.08 30.06      
May 11 12:53 5 10 Clear CLR 91 61     37%   91 30.11 30.09      
Jun 11 23:53 ESE 3 10 Clear CLR 76 63     64%   76 30.2 30.19      
Jun 11 01:53 SE 5 10 Clear CLR 72 61     68%   72 30.18 30.16      
Jun 10 04:53 SSE 6 10 Clear CLR 68 61     78%     30.04 30.03      
Jun 10 03:53 S 6 10 Clear CLR 70 60     71%     30.04 30.02      
Notice The following observation data may not be complete
Jun 09 08:53 SW 3 10 Clear CLR   58      %     29.98 29.97      
Jun 09 03:53 ESE 3 10 Clear   66 60     81%     29.89 29.88      
Jun 08 17:53 3 10 Clear CLR 83 53     36%   82 29.84 29.83      
Jun 07 21:53 ESE 3 10 Clear CLR 69 61     75%     29.86 29.85      
Jun 07 09:53 NE 11 10 Partly Cloudy SCT110 70 55     59%     29.82 29.81      
Jun 06 13:53 3 10 Mostly Cloudy SCT029 BKN090 83 67     59%   86 29.76 29.75     0
Jun 06 08:01 W 3 10 Cloudy SCT006 OVC110 74 69     85%   75 29.81        
Jun 06 02:53 3 10 Clear CLR 73 68     84%   74 29.81 29.79      
Jun 05 19:53 3 2 Rain SCT038 OVC075 77 69     77%   78 29.79 29.77 0   0
Jun 05 15:53 6 10 Partly Cloudy SCT041 88 67     50%   91 29.77 29.75